This is the latest recevied weather packets stored in our database for station/object N9VPV. If no packets are shown the sender has not sent any weather packets the latest 10 day(s).
| Time | Temp. | Humidity | Pressure | Rain* | Wind** | Luminosity | Snow |
|---|---|---|---|---|---|---|---|
| 1777675800 | 12.78° C | 52% | 1015.7 hPa | 0 mm | - | 0 W/m² | - |
| 1777674902 | 12.78° C | 55% | 1015.7 hPa | 0 mm | - | 0 W/m² | - |
| 1777673999 | 12.22° C | 54% | 1015.8 hPa | 0 mm | - | 0 W/m² | - |
| 1777673098 | 12.78° C | 52% | 1015.8 hPa | 0 mm | - | 0 W/m² | - |
| 1777672195 | 13.33° C | 50% | 1015.7 hPa | 0 mm | - | 0 W/m² | - |
| 1777671294 | 14.44° C | 46% | 1015.7 hPa | 0 mm | - | 0 W/m² | - |
| 1777670786 | 14.44° C | 49% | 1015.8 hPa | 0 mm | - | 98 W/m² | - |
| 1777669472 | 13.33° C | 53% | 1016 hPa | 0 mm | - | 105 W/m² | - |
| 1777668572 | 13.33° C | 53% | 1016.1 hPa | 0 mm | - | 74 W/m² | - |
| 1777667674 | 12.78° C | 52% | 1016.3 hPa | 0 mm | - | 70 W/m² | - |
| 1777666772 | 12.22° C | 58% | 1016.6 hPa | 0 mm | - | 151 W/m² | - |
| 1777665868 | 11.67° C | 58% | 1016.6 hPa | 0 mm | - | 58 W/m² | - |
| 1777664968 | 11.67° C | 54% | 1016.7 hPa | 0 mm | - | 0 W/m² | - |
| 1777664056 | 12.22° C | 55% | 1016.6 hPa | 0 mm | - | 35 W/m² | - |
| 1777663154 | 12.78° C | 53% | 1016.6 hPa | 0 mm | - | 62 W/m² | - |
| 1777662255 | 12.22° C | 58% | 1016.7 hPa | 0 mm | - | 192 W/m² | - |
| 1777661355 | 11.67° C | 53% | 1016.8 hPa | 0 mm | - | 0 W/m² | - |
| 1777660453 | 12.78° C | 51% | 1016.7 hPa | 0 mm | - | 0 W/m² | - |
| 1777659546 | 13.33° C | 49% | 1016.6 hPa | 0 mm | - | 207 W/m² | - |
| 1777658645 | 12.78° C | 52% | 1016.6 hPa | 0 mm | - | 374 W/m² | - |
| 1777657743 | 11.67° C | 54% | 1016.9 hPa | 0 mm | - | 243 W/m² | - |
| 1777656843 | 11.67° C | 51% | 1016.9 hPa | 0 mm | - | 23 W/m² | - |
| 1777655943 | 11.67° C | 49% | 1016.8 hPa | 0 mm | - | 0 W/m² | - |
| 1777655042 | 11.67° C | 49% | 1016.7 hPa | 0 mm | - | 0 W/m² | - |
| 1777654142 | 11.67° C | 50% | 1016.7 hPa | 0 mm | - | 63 W/m² | - |
* Rain latest hour (hover to see other rain measurements)
** Current wind speed in m/s (hover to see current wind gust speed)